Flag for Cameroon Weather past 2 weeks in Bamenda, Cameroon

Now
77 °F

Passing clouds.


Feels Like: 78 °F
Forecast: 63 / 77 °F
Wind: No wind

Location: Douala Obs.

Current Time: Jul 6, 2015 at 3:59:39 AM

Latest Report: Jul 6, 2015 at 3:00 AM


Visibility: N/A

Pressure: 29.89 "Hg (25.93 "Hg at 1240m altitude)

Humidity: 94%

Dew point: 75 °F

Location of BamendaLocation

Historic Weather in Bamenda — Graph

°F

Bamenda temperature yesterday

Maximum temperature yesterday: 86 °F (at 1:00 PM)
Minimum temperature yesterday: 75 °F (at 3:00 AM)
Average temperature yesterday: 80 °F

Past Weeks' High & Low Weather Summary

 TemperatureHumidityPressure
High86 °F (Jul 5, 1:00 PM)100% (Jun 22, 6:00 AM)30.09 "Hg (Jun 22, 6:00 AM)
Low75 °F (Jun 22, 6:00 AM)70% (Jun 29, 12:00 PM)29.83 "Hg (Jul 5, 5:00 PM)
Average78 °F91%29.97 "Hg
* Reported Jun 21 2:00 AM — Jul 6 2:00 AM, Bamenda, Weather by CustomWeather, © 2015

Note: Actual official high and low records may vary slightly from our data, if they occured in-between our weather recording intervals... More about our weather records

Advertising

Bamenda weather history for previous 24 hours

 ConditionsComfort  
Time TempWeatherWind HumidityBarometerVisibility
2:00 AM
Mon, Jul 6
77 °FPassing clouds.3 mph100%29.89 "HgN/A
1:00 AM79 °FPassing clouds.3 mph94%29.92 "HgN/A
12:00 AM79 °FPassing clouds.No wind94%29.92 "HgN/A
11:00 PM
Sun, Jul 5
79 °FPassing clouds.No wind94%29.92 "HgN/A
10:00 PM79 °FPassing clouds.No wind94%29.92 "HgN/A
9:00 PM79 °FPassing clouds.No wind89%29.89 "HgN/A
8:00 PM79 °FPassing clouds.5 mph89%29.89 "HgN/A
7:00 PM81 °FPassing clouds.5 mph84%29.86 "HgN/A
6:00 PM81 °FScattered clouds.9 mph84%29.83 "HgN/A
5:00 PM82 °FPartly sunny.12 mph79%29.83 "HgN/A
4:00 PM82 °FPartly sunny.12 mph79%29.86 "HgN/A
3:00 PM84 °FPartly sunny.12 mph79%29.86 "HgN/A
2:00 PM86 °FPartly sunny.7 mph70%29.89 "HgN/A
1:00 PM86 °FPartly sunny.5 mph70%29.92 "HgN/A
12:00 PM84 °FPartly sunny.2 mph70%29.95 "HgN/A
11:00 AM84 °FPartly sunny.2 mph70%29.95 "HgN/A
10:00 AM84 °FPartly sunny.2 mph74%29.95 "HgN/A
9:00 AM79 °FPartly sunny.2 mph89%29.95 "Hg4 mi
8:00 AM77 °FFog.No wind89%29.92 "Hg1 mi
7:00 AM75 °FFog.No wind94%29.92 "Hg1 mi
6:00 AM77 °FPassing clouds.No wind94%29.92 "Hg5 mi
5:00 AM75 °FPassing clouds.No wind100%29.92 "Hg5 mi
4:00 AM75 °FPassing clouds.No wind100%29.92 "Hg5 mi
3:00 AM75 °FPassing clouds.No wind100%29.92 "Hg5 mi
Weather by CustomWeather, © 2015

See weather overviewHow to use our weather pages